Cooperstown, ND

10:34 PM CDT on May 28, 2017 (GMT -0500)
Cooperstown

Weather History for KS32 - November, 2012

Change the Weather History Date:

Saturday, November 24, 2012

  Actual Average (KJMS) Record (KJMS)
Temperature  
Mean Temperature 16 °F -  
Max Temperature 32 °F 33 °F 62 °F (1942)
Min Temperature 1 °F 13 °F -17 °F (1951)
Degree Days  
Heating Degree Days 48    
Moisture  
Dew Point 17 °F    
Average Humidity 92    
Maximum Humidity 100    
Minimum Humidity 74    
Precipitation  
Precipitation 0.00 in - - ()
Sea Level Pressure  
Sea Level Pressure 29.93 in    
Wind  
Wind Speed 12 mph (SSW)    
Max Wind Speed 24 mph    
Max Gust Speed 33 mph    
Visibility 10 miles    
Events Rain , Snow    
Averages and records for this station are not official NWS values.
T = Trace of Precipitation, MM = Missing Value Source: NWS Daily Summary

Daily Weather History Graph

Daily Weather History Graph

Search for Another Location

Airport or City:

Trip Planner

Search our weather history database for the weather conditions in past years. The results will help you decide how hot, cold, wet, or windy it might be!

Date:

Astronomy

Nov. 24, 2012 Rise Set
Actual Time 7:50 AM CST 4:47 PM CST
Civil Twilight 7:16 AM CST 5:22 PM CST
Nautical Twilight 6:38 AM CST 6:00 PM CST
Astronomical Twilight 6:01 AM CST 6:36 PM CST
Moon 2:43 PM CST (11/24) 3:56 AM CST (11/24)
Length of Visible Light 10h 05m
Length of Day
8h 57m
Waxing Gibbous, 87% of the Moon is Illuminated
Nov 24
Waxing Gibbous
Nov 28
Full
Dec 6
Last Quarter
Dec 13
New
Dec 19
First Quarter

Hourly Weather History & Observations

Time (CST) Temp. Windchill Dew Point Humidity Pressure Visibility Wind Dir Wind Speed Gust Speed Precip Events Conditions
12:15 AM 1.4 °F -6.2 °F -0.4 °F 92% 30.29 in 10.0 mi SSE 3.5 mph - N/A   Clear
12:35 AM 1.4 °F -9.9 °F -0.4 °F 92% 30.28 in 10.0 mi SSE 5.8 mph - N/A   Clear
12:55 AM 1.4 °F -6.2 °F -0.4 °F 92% 30.28 in 10.0 mi SSW 3.5 mph - N/A   Clear
1:15 AM 1.4 °F -8.3 °F -0.4 °F 92% 30.26 in 10.0 mi ESE 4.6 mph - N/A   Partly Cloudy
1:35 AM 1.4 °F -8.3 °F -0.4 °F 92% 30.25 in 10.0 mi SE 4.6 mph - N/A   Mostly Cloudy
1:55 AM 5.0 °F -5.6 °F 1.4 °F 85% 30.24 in 10.0 mi South 5.8 mph - N/A   Overcast
2:35 AM 5.0 °F -6.9 °F 5.0 °F 100% 30.22 in 10.0 mi SSE 6.9 mph - N/A   Overcast
2:55 AM 6.8 °F -6.9 °F 5.0 °F 92% 30.20 in 10.0 mi SSE 9.2 mph - N/A   Overcast
3:15 AM 6.8 °F -6.9 °F 5.0 °F 92% 30.20 in 10.0 mi SE 9.2 mph - N/A   Overcast
3:35 AM 6.8 °F -6.9 °F 6.8 °F 100% 30.19 in 10.0 mi SSE 9.2 mph - N/A   Overcast
3:55 AM 8.6 °F -4.7 °F 6.8 °F 92% 30.17 in 10.0 mi SSE 9.2 mph - N/A   Overcast
4:15 AM 8.6 °F -6.3 °F 8.6 °F 100% 30.15 in 10.0 mi SSE 11.5 mph - N/A   Overcast
4:35 AM 8.6 °F -7.0 °F 8.6 °F 100% 30.14 in 10.0 mi SSE 12.7 mph - N/A   Mostly Cloudy
4:55 AM 8.6 °F -7.0 °F 8.6 °F 100% 30.13 in 10.0 mi SSE 12.7 mph - N/A   Overcast
5:15 AM 10.4 °F -4.8 °F 8.6 °F 92% 30.12 in 10.0 mi South 12.7 mph - N/A   Mostly Cloudy
5:35 AM 10.4 °F -4.8 °F 8.6 °F 92% 30.10 in 10.0 mi South 12.7 mph - N/A   Mostly Cloudy
5:55 AM 10.4 °F -4.1 °F 8.6 °F 92% 30.11 in 10.0 mi South 11.5 mph - N/A   Scattered Clouds
6:15 AM 10.4 °F -3.3 °F 8.6 °F 92% 30.10 in 10.0 mi SSE 10.4 mph - N/A   Mostly Cloudy
6:35 AM 10.4 °F -4.8 °F 10.4 °F 100% 30.07 in 10.0 mi SSE 12.7 mph - N/A   Mostly Cloudy
6:55 AM 10.4 °F -6.6 °F 10.4 °F 100% 30.05 in 10.0 mi South 16.1 mph - N/A   Overcast
7:15 AM 12.2 °F -3.7 °F 10.4 °F 92% 30.03 in 10.0 mi SSE 15.0 mph - N/A   Overcast
7:35 AM 12.2 °F -3.7 °F 10.4 °F 92% 30.02 in 10.0 mi South 15.0 mph - N/A   Overcast
7:55 AM 14.0 °F -2.5 °F 12.2 °F 93% 29.99 in 10.0 mi SSE 17.3 mph - N/A   Overcast
8:15 AM 14.0 °F -3.4 °F 12.2 °F 93% 29.98 in 10.0 mi SSE 19.6 mph - N/A   Overcast
8:35 AM 14.0 °F -3.0 °F 14.0 °F 100% 29.96 in 10.0 mi SSE 18.4 mph - N/A   Overcast
8:55 AM 15.8 °F -0.2 °F 14.0 °F 93% 29.94 in 10.0 mi SSE 17.3 mph - N/A   Overcast
9:15 AM 15.8 °F -0.2 °F 14.0 °F 93% 29.94 in 10.0 mi South 17.3 mph - N/A   Overcast
9:35 AM 15.8 °F 0.9 °F 14.0 °F 93% 29.94 in 10.0 mi South 15.0 mph - N/A   Mostly Cloudy
9:55 AM 17.6 °F 1.7 °F 14.0 °F 86% 29.93 in 10.0 mi South 18.4 mph - N/A   Mostly Cloudy
10:15 AM 17.6 °F 1.7 °F 15.8 °F 93% 29.91 in 10.0 mi South 18.4 mph - N/A   Overcast
10:35 AM 19.4 °F 4.1 °F 17.6 °F 93% 29.90 in 10.0 mi South 18.4 mph 21.9 mph N/A   Overcast
10:55 AM 19.4 °F 4.1 °F 17.6 °F 93% 29.88 in 10.0 mi South 18.4 mph - N/A   Overcast
11:15 AM 19.4 °F 5.0 °F 17.6 °F 93% 29.87 in 10.0 mi South 16.1 mph - N/A   Mostly Cloudy
11:35 AM 21.2 °F 6.8 °F 17.6 °F 86% 29.85 in 10.0 mi South 17.3 mph 20.7 mph N/A   Partly Cloudy
11:55 AM 23.0 °F 6.9 °F 19.4 °F 86% 29.81 in 10.0 mi South 24.2 mph 28.8 mph N/A   Scattered Clouds
12:15 PM 23.0 °F 8.7 °F 19.4 °F 86% 29.81 in 10.0 mi South 18.4 mph - N/A   Scattered Clouds
12:35 PM 23.0 °F 8.7 °F 19.4 °F 86% 29.79 in 10.0 mi South 18.4 mph - N/A   Mostly Cloudy
12:55 PM 24.8 °F 13.4 °F 21.2 °F 86% 29.80 in 10.0 mi South 12.7 mph - N/A   Mostly Cloudy
1:15 PM 26.6 °F 13.8 °F 23.0 °F 86% 29.79 in 10.0 mi SSW 17.3 mph 21.9 mph N/A   Mostly Cloudy
1:35 PM 26.6 °F 14.3 °F 23.0 °F 86% 29.77 in 10.0 mi SSW 16.1 mph 21.9 mph N/A   Mostly Cloudy
1:55 PM 28.4 °F 16.2 °F 23.0 °F 80% 29.76 in 10.0 mi SSW 17.3 mph - N/A   Partly Cloudy
2:15 PM 28.4 °F 17.0 °F 21.2 °F 74% 29.75 in 10.0 mi SSW 15.0 mph 23.0 mph N/A   Mostly Cloudy
2:35 PM 28.4 °F 17.5 °F 23.0 °F 80% 29.74 in 2.5 mi SSW 13.8 mph - N/A Snow Light Snow
2:55 PM 28.4 °F 18.5 °F 24.8 °F 86% 29.75 in 10.0 mi SW 11.5 mph - N/A   Overcast
3:15 PM 28.4 °F 18.5 °F 24.8 °F 86% 29.74 in 10.0 mi SW 11.5 mph - N/A   Overcast
3:35 PM 28.4 °F 18.0 °F 24.8 °F 86% 29.74 in 10.0 mi SW 12.7 mph - N/A   Overcast
3:55 PM 28.4 °F 19.7 °F 24.8 °F 86% 29.74 in 10.0 mi SW 9.2 mph - N/A   Overcast
4:15 PM 28.4 °F 19.1 °F 24.8 °F 86% 29.74 in 10.0 mi SW 10.4 mph - N/A   Overcast
4:35 PM 28.4 °F 19.7 °F 26.6 °F 93% 29.73 in 10.0 mi SW 9.2 mph - N/A   Overcast
4:55 PM 28.4 °F 21.2 °F 26.6 °F 93% 29.75 in 10.0 mi WSW 6.9 mph - N/A   Mostly Cloudy
5:15 PM 28.4 °F 20.4 °F 26.6 °F 93% 29.74 in 10.0 mi WSW 8.1 mph - N/A   Overcast
5:35 PM 26.6 °F 20.0 °F 26.6 °F 100% 29.74 in 10.0 mi West 5.8 mph - N/A   Overcast
5:55 PM 28.4 °F 20.4 °F 26.6 °F 93% 29.75 in 10.0 mi West 8.1 mph - N/A   Overcast
6:15 PM 32.0 °F 21.6 °F 28.4 °F 87% 29.76 in 10.0 mi NW 15.0 mph 20.7 mph N/A   Overcast
6:35 PM 32.0 °F 20.5 °F 32.0 °F 100% 29.76 in 10.0 mi NW 18.4 mph 25.3 mph N/A   Overcast
6:55 PM 32.0 °F 19.8 °F 30.2 °F 93% 29.75 in 10.0 mi NNW 20.7 mph 29.9 mph N/A   Overcast
7:15 PM 32.0 °F 19.8 °F 30.2 °F 93% 29.77 in 10.0 mi NNW 20.7 mph 29.9 mph N/A   Overcast
7:35 PM 32.0 °F 19.8 °F 28.4 °F 87% 29.79 in 10.0 mi NNW 20.7 mph 27.6 mph N/A   Overcast
7:55 PM 28.4 °F 15.1 °F 28.4 °F 100% 29.80 in 10.0 mi NNW 20.7 mph 25.3 mph N/A   Overcast
8:15 PM 28.4 °F 15.1 °F 28.4 °F 100% 29.80 in 10.0 mi NNW 20.7 mph 29.9 mph N/A   Overcast
8:35 PM 28.4 °F 15.4 °F 26.6 °F 93% 29.81 in 10.0 mi NNW 19.6 mph - N/A   Overcast
8:55 PM 26.6 °F 12.4 °F 26.6 °F 100% 29.82 in 10.0 mi NNW 21.9 mph 27.6 mph N/A   Overcast
9:15 PM 26.6 °F 14.7 °F 26.6 °F 100% 29.82 in 10.0 mi NNW 15.0 mph - N/A   Overcast
9:35 PM 26.6 °F 13.4 °F 26.6 °F 100% 29.84 in 10.0 mi NNW 18.4 mph 26.5 mph N/A   Overcast
9:55 PM 24.8 °F 9.6 °F 23.0 °F 93% 29.85 in 10.0 mi NNW 23.0 mph 31.1 mph N/A   Overcast
10:15 PM 23.0 °F 6.9 °F 23.0 °F 100% 29.86 in 10.0 mi NNW 24.2 mph - N/A   Overcast
10:35 PM 23.0 °F 8.0 °F 21.2 °F 93% 29.87 in 10.0 mi NNW 20.7 mph 33.4 mph N/A   Overcast
10:55 PM 23.0 °F 8.7 °F 21.2 °F 93% 29.88 in 10.0 mi NNW 18.4 mph 27.6 mph N/A   Overcast
11:15 PM 23.0 °F 9.6 °F 21.2 °F 93% 29.89 in 7.0 mi NNW 16.1 mph 23.0 mph N/A Rain Light Freezing Rain
11:35 PM 23.0 °F 7.6 °F 23.0 °F 100% 29.89 in 10.0 mi NNW 21.9 mph 27.6 mph N/A   Overcast
11:55 PM 23.0 °F 9.2 °F 23.0 °F 100% 29.89 in 10.0 mi NNW 17.3 mph 27.6 mph N/A   Overcast